Dewpoint
14 11 10 9 9 10 15 12 10 8 5 6 5 5 4 3 1 0 -0 -0 1 2 5 14 15 16 17 17 17 19 21 21 25 27 29 32 32 32 32 34 36 37 38 39
13 14 14 12 11 10 10 10 12 12 13 12 7 2 1 1 0 -1 1 2 8 11 11 12 14 14 16 16 16 16 17 19 21 25 26 30 31 31 32 35 35 36 39 41
14 15 12 9 10 17 19 12 10 11 9 9 5 5 5 5 2 1 10 11 11 10 10 11 12 13 15 15 15 16 17 19 20 22 24 26 29 32 32 32 31 32 37 39
17 15 12 13 15 17 12 12 11 8 10 8 8 3 4 5 2 0 10 11 11 11 12 13 13 14 14 14 15 17 18 20 21 22 23 23 25 27 31 31 30 33 35 34
13 14 14 15 16 16 13 12 12 11 10 9 7 5 3 1 5 6 8 10 12 13 15 14 14 15 14 15 16 17 18 20 21 23 23 24 25 27 30 32 31 32 35 36
17 17 16 15 12 16 15 15 13 13 11 4 5 8 2 -2 9 6 12 14 15 15 15 15 15 15 15 15 16 17 18 19 21 22 22 24 24 26 29 31 32 31 34 37
14 15 10 9 11 15 12 6 2 -8 -3 -3 0 -2 0 0 11 16 16 16 16 16 16 16 15 15 15 15 16 17 18 19 20 21 22 23 24 26 27 30 31 32 32 35
7 3 10 7 9 9 15 10 3 -5 -6 -2 -2 -6 3 14 16 16 15 17 17 17 17 17 16 15 15 16 17 17 18 19 20 21 21 23 24 25 27 29 31 33 33 34
11 8 11 8 16 16 7 1 14 8 1 -4 3 1 -1 14 14 14 15 17 18 18 18 17 16 15 16 16 17 17 18 18 19 20 21 22 23 25 27 28 30 34 34 36
14 5 6 11 15 15 14 14 4 9 -5 -13 -6 -1 4 11 12 14 17 18 17 17 17 16 15 15 16 17 17 18 18 18 18 19 21 21 22 25 27 29 30 34 33 32
10 7 6 12 4 6 11 8 13 14 1 -1 -4 -4 5 8 7 10 14 18 15 15 14 15 15 15 15 16 16 17 17 16 17 19 20 21 21 23 26 30 31 35 34 31
13 10 3 3 7 13 9 6 11 1 -7 -3 -1 -1 7 6 10 13 17 18 16 15 15 14 13 12 12 13 15 15 16 16 17 18 19 21 21 23 27 30 32 35 32 33
11 5 -1 -6 -1 9 11 15 11 7 5 -2 -2 -2 10 12 14 16 17 14 15 16 14 12 11 11 11 14 14 15 14 15 17 17 19 20 21 22 26 30 31 34 35 30
16 10 -1 -2 -3 7 7 3 3 1 -4 -3 0 3 7 10 12 15 14 13 9 12 12 10 10 10 10 14 14 14 14 16 18 18 19 21 23 24 27 30 32 33 37 32
13 2 -5 -1 3 6 5 5 1 -4 3 5 3 6 9 11 13 15 15 12 8 9 9 9 9 9 11 11 13 13 14 16 17 17 20 22 26 30 30 31 33 34 37 39
16 3 -2 -1 1 -1 -2 2 3 10 11 8 8 6 12 14 17 16 12 9 6 8 7 8 8 8 9 10 12 12 14 16 16 19 21 26 33 33 33 33 34 36 38 40
10 2 -4 -9 -2 2 0 7 3 1 8 5 4 10 16 14 14 11 11 6 4 6 7 8 8 8 9 10 12 12 14 16 16 19 21 25 32 33 34 35 36 37 37 39
12 3 3 -6 -2 -10 5 3 2 -1 1 6 12 15 15 14 13 10 5 3 5 6 8 8 10 9 9 10 11 14 15 14 16 18 20 24 27 30 32 33 33 34 36 37
14 9 1 -5 -10 1 15 10 6 1 2 16 10 11 12 14 13 10 4 1 5 6 8 9 11 10 9 9 10 12 12 12 15 16 18 22 25 26 28 30 31 32 32 33
13 15 6 -1 -6 -13 4 11 14 8 6 8 5 3 8 16 10 9 5 2 6 7 8 10 10 10 6 8 9 11 10 10 12 15 18 21 25 26 26 28 30 30 31 32
-1 5 -0 2 0 1 14 18 17 7 6 6 6 4 12 12 12 7 3 3 5 9 8 11 10 9 6 6 7 7 6 7 12 16 18 20 23 25 26 27 28 30 29 29
1 -5 7 -4 -6 -4 15 15 10 12 12 8 9 10 10 14 10 6 3 6 7 9 9 9 9 8 7 6 3 3 3 7 11 14 15 17 20 23 25 26 26 27 28 27
3 10 3 7 3 14 14 15 15 12 11 12 16 14 16 15 14 13 5 5 6 9 9 9 9 8 6 4 4 1 2 5 10 10 12 14 18 20 22 23 24 24 25 25
9 10 12 10 10 11 15 19 18 17 18 18 18 17 17 16 15 13 2 0 3 6 8 9 7 6 4 3 2 0 1 4 10 9 9 10 13 17 19 20 22 23 22 22
7 8 7 7 10 15 18 17 14 15 15 15 15 16 17 17 16 13 4 3 3 2 6 8 6 6 4 3 1 -1 0 3 9 9 9 10 10 12 14 17 19 21 23 24
10 9 8 7 19 16 15 15 14 13 13 12 13 14 15 18 17 15 8 5 5 4 5 7 5 4 3 1 -0 -2 -2 1 3 6 8 7 9 9 10 12 14 21 22 23
Lifted_Index
12 11 9 9 8 6 4 3 2 1 1 1 1 2 2 2 2 2 2 2 2 2 2 2 3 5 5 6 7 9 10 12 13 14 15 14 14 14 14 14 14 14 14 14
12 11 10 9 8 6 4 2 1 1 1 1 1 2 2 2 2 2 2 2 2 2 2 3 4 4 5 6 7 8 10 11 12 13 14 15 14 14 14 14 14 14 14 13
12 11 11 9 7 5 3 2 1 1 0 1 1 1 2 2 2 1 2 2 2 3 3 4 4 5 5 6 7 8 9 10 11 12 13 15 15 15 15 15 15 15 14 14
12 12 11 9 6 3 2 1 1 0 0 1 1 1 1 1 1 1 1 2 3 3 4 4 5 6 6 7 8 8 9 9 10 11 12 13 14 15 15 15 15 15 14 14
12 11 10 7 4 1 1 1 1 0 0 0 1 1 1 1 1 1 1 2 3 4 4 5 6 7 7 8 9 10 10 10 10 10 11 12 13 15 15 15 15 15 14 14
12 11 8 5 2 1 0 0 0 0 0 0 0 1 1 1 1 1 1 2 3 4 5 6 7 7 8 9 10 11 11 10 10 10 10 10 11 13 15 15 15 15 14 14
12 10 7 4 2 1 0 0 0 0 0 0 0 1 1 1 1 1 2 3 4 5 6 7 7 8 9 10 11 11 11 10 11 11 10 10 10 11 13 15 15 15 15 14
11 10 7 4 1 0 0 0 0 0 0 0 1 1 1 1 1 2 3 4 5 5 6 7 8 9 10 10 11 11 10 10 10 10 10 10 10 10 11 13 15 15 15 14
11 10 7 4 1 0 0 0 0 0 0 0 1 1 1 1 2 2 3 4 5 6 7 8 9 10 10 11 11 11 10 10 10 10 10 10 10 9 10 12 14 14 14 14
11 10 7 4 1 1 0 0 0 0 0 0 1 1 1 2 2 3 4 5 6 7 8 9 10 10 10 11 11 11 11 10 10 9 9 9 9 9 9 10 12 13 14 14
11 10 8 4 2 1 1 0 0 0 0 0 1 1 2 2 3 4 4 5 7 8 9 10 10 11 11 11 11 11 11 11 11 10 9 9 9 9 9 9 10 11 12 13
12 11 8 5 3 1 1 0 0 0 1 1 1 1 2 3 3 4 5 6 8 9 10 10 11 11 11 11 11 11 12 12 12 11 10 8 8 8 8 9 8 9 10 11
11 10 8 6 3 2 1 1 1 1 1 1 1 2 2 3 4 4 5 6 8 10 10 11 11 11 11 11 11 12 13 13 13 12 9 8 7 7 7 7 7 7 8 9
10 8 7 5 4 2 2 1 1 2 2 2 2 2 3 3 4 4 5 7 9 9 10 11 11 11 11 11 11 12 13 14 13 11 8 6 5 5 6 7 6 6 6 7
8 7 6 5 4 3 2 2 2 2 2 2 2 2 3 4 4 5 6 7 8 9 10 11 11 11 11 11 11 12 13 14 12 10 7 5 4 4 5 6 6 5 5 6
6 5 4 4 3 3 2 2 2 2 2 2 2 3 3 4 4 5 6 7 8 9 10 11 12 12 12 12 12 12 14 14 12 9 6 4 4 4 5 5 5 5 5 5
5 4 3 2 2 2 2 2 2 2 2 2 3 3 4 4 4 5 6 7 8 9 10 11 12 13 12 12 12 12 13 14 12 9 7 5 4 4 5 5 5 5 5 5
3 3 2 2 1 1 1 2 2 2 2 3 3 4 4 4 5 5 7 8 8 9 10 11 12 13 13 13 12 12 12 13 12 11 9 8 7 6 5 5 5 6 5 4
3 3 2 1 1 1 1 2 2 2 2 3 3 4 4 4 4 6 7 8 9 9 10 12 13 13 13 13 13 12 12 12 12 11 10 10 9 8 7 7 6 6 5 4
3 2 2 1 1 1 2 2 2 2 2 3 4 4 4 4 4 6 8 9 9 10 10 11 12 13 13 13 13 13 13 12 12 11 11 11 10 9 9 8 7 7 5 4
2 2 1 1 1 1 2 3 3 2 2 3 4 4 4 4 5 6 8 9 9 9 10 11 12 12 13 13 13 13 13 13 13 12 11 11 10 10 9 9 8 8 7 6
2 2 1 2 2 2 2 3 3 3 3 4 4 4 5 5 5 6 8 8 9 9 10 10 11 11 12 13 13 12 12 13 14 13 12 11 11 10 10 10 9 8 8 7
3 2 2 2 2 2 2 3 3 3 4 4 5 5 5 5 5 6 7 8 9 9 9 10 10 10 11 12 12 12 12 13 13 13 13 12 12 12 11 11 10 9 8 8
3 3 2 2 2 2 3 3 3 4 4 5 5 5 5 5 5 5 6 8 9 9 9 10 10 10 10 11 12 12 12 12 12 12 12 12 12 13 12 12 11 11 10 9
3 2 2 2 2 2 3 3 4 4 4 5 5 5 5 5 5 5 6 7 8 9 9 10 10 9 10 10 11 11 12 12 11 11 11 11 12 12 12 13 13 13 12 12
2 2 2 2 2 2 3 3 4 4 4 5 5 5 6 5 5 5 5 7 8 9 9 9 10 10 10 10 11 11 11 11 11 10 10 10 11 11 12 12 13 14 13 13